Regional Weather Roundup
Issued by NWS Wakefield, VA

Home | Current Version | Previous Version | Text Only | Print | Product List | Glossary On
Versions: 1 2 3 4 5 6 7 8 9 10 11 12 13 14 15 16 17 18
000
ASUS41 KAKQ 301815
RWRAKQ

REGIONAL WEATHER ROUNDUP
NATIONAL WEATHER SERVICE WAKEFIELD VA
200 PM EDT THU JUL 30 2015

Note: "fair" indicates few or no clouds below 12,000 feet with no
significant weather and/or obstructions to visibility. * = Denotes
station may not report precipitation (e.g., rain,snow,etc.),
thunder or fog.

VAZ042-051-052>054-056-301900-
NORTHERN VIRGINIA

CITY           SKY/WX    TMP DP  RH WIND       PRES   REMARKS
WASH NATIONAL  PTSUNNY   90  75  62 W18G29    29.90R THUNDER HX 100
DULLES         PTSUNNY   77  75  94 E3        29.92F
FORT BELVOIR   MOSUNNY   89  75  64 S5        29.88F HX  99
QUANTICO       PTSUNNY   91  68  46 S6        29.86F HX  95
FREDERICKSBRG* MOSUNNY   93  76  56 S9        29.87F HX 105
STAFFORD*      MOSUNNY   92  72  52 SW5       29.92F HX  99
WARRENTON      PTSUNNY   88  78  72 N6        29.89S HX 100
CULPEPER*      CLOUDY    87  75  67 W9        29.90S HX  96
MANASSAS*      NOT AVBL
LEESBURG*      CLOUDY    81  77  89 W5        29.92S
WINCHESTER     PTSUNNY   82  73  74 W5        29.92F
FRONT ROYAL*   CLOUDY    77  73  88 CALM      29.92F VSB 3/4
LURAY*         MOCLDY    88  72  58 CALM      29.93F
$$

VAZ048-049-060>072-079>083-301900-
CENTRAL AND SOUTH CENTRAL VIRGINIA

CITY           SKY/WX    TMP DP  RH WIND       PRES   REMARKS
RICHMOND       PTSUNNY   91  75  59 S9        29.91F HX 101
CHESTERFIELD*  FAIR      90  68  48 SW10      29.93F
PETERSBURG*    MOSUNNY   91  79  69 S6        29.93F HX 107
HANOVER        PTSUNNY  N/A N/A N/A S10       29.92F
TAPPAHANNOCK*  MOSUNNY   88  73  59 S10G16    29.91F HX  95
QUINTON*       FAIR      88  75  66 S3        29.91F HX  98
CHARLOTTSVILLE PTSUNNY   88  74  63 VRB5      29.91F HX  96
GORDONSVILLE*  FAIR      90  77  66 S6        29.89F HX 102
ORANGE*        PTSUNNY   90  77  66 CALM      29.91F HX 102
LOUISA*        PTSUNNY   91  75  59 S6        29.89F HX 102
BUMPASS*       FAIR      90  76  62 S3        29.89F HX 101
FARMVILLE*     PTSUNNY   89  74  61 S6        29.91F HX  99
CREWE*         FAIR     N/A N/A N/A S3        29.93F
FORT PICKETT*  FAIR      89  75  62 S8        29.94F HX  99
CHASE CITY*    FAIR      93  79  63 S5        29.94F HX 109
CLARKSVILLE*   FAIR      90  75  62 S6        29.93F HX 100
SOUTH HILL*    PTSUNNY   87  75  65 SW6       30.00F HX  96
LAWRENCEVILLE* FAIR      90  75  62 CALM      29.93F HX 100
EMPORIA*       MOSUNNY   91  72  52 SE7       29.94F HX  98
$$

VAZ088>098-301900-
SOUTHEAST VIRGINIA

CITY           SKY/WX    TMP DP  RH WIND       PRES   REMARKS
NORFOLK        SUNNY     90  74  59 NE8       29.92F HX  99
VIRGINIA BEACH MOSUNNY   90  76  63 SE12      29.91F HX 101
NORFOLK NAVAL  MOSUNNY   89  75  63 NE8       29.93F HX  99
WEST POINT*    MOSUNNY   91  71  51 S5        29.93F HX  96
SALUDA*        FAIR      88  75  65 S6        29.91F HX  97
NEWPORT NEWS   MOSUNNY   91  71  51 SW10      29.92F HX  97
LANGLEY AFB    SUNNY     91  72  53 SE9       29.92F HX  97
FORT EUSTIS    SUNNY     90  70  52 SE6       29.90F HX  95
WILLIAMSBURG*  MOSUNNY   95  75  52 S6        29.93F HX 107
HR EXEC AP*    MOCLDY    90  72  55 S8        29.93F HX  96
FRANKLIN*      SUNNY     90  72  55 CALM      29.93F HX  96
WAKEFIELD      PTSUNNY   90  72  55 VRB6      29.92F HX  97
$$

VAZ020-022-025-037-045-301900-
WEST CENTRAL AND SOUTHWEST VIRGINIA

CITY           SKY/WX    TMP DP  RH WIND       PRES   REMARKS
STAUNTON*      PTSUNNY   89  74  60 S5        29.97F HX  98
WAYNESBORO*    FAIR      82  74  75 W5        29.98F
HOT SPRINGS VA CLOUDY    77  70  79 W8        30.13S
LYNCHBURG      CLOUDY    84  73  69 VRB5      29.97F
DANVILLE       PTSUNNY   82  75  79 SE3       29.94F
SOUTH BOSTON*  MOCLDY    86  74  67 NW14G25   29.95R
MARTINSVILLE   MOSUNNY   91  73  56 NE3       29.99F HX  98
ROANOKE        MOSUNNY   88  72  58 CALM      30.00F
BLACKSBURG     PTSUNNY   86  73  64 NW6       30.08F
DUBLIN*          N/A     85  71  63 W3        30.07F
MARION*        MOSUNNY   83  70  64 W7        30.13S
HILLSVILLE*    CLOUDY    81  69  67 N8        30.09F
RICHLANDS*     MOCLDY    79  72  79 NW7       30.13F
WISE*          CLOUDY    79  73  83 N7        30.16S
ABINGDON*      MOSUNNY   85  69  58 N6        30.09F
$$

MDZ021>025-VAZ099-100-301900-
SOUTHERN MARYLAND AND THE DELMARVA PENINSULA

CITY           SKY/WX    TMP DP  RH WIND       PRES   REMARKS
PATUXENT RIVER PTSUNNY   88  74  63 S9        29.89F HX  96
BAY BRIDGE APT   N/A     88  72  58 S13G18    29.88F
LEONARDTOWN    PTSUNNY   88  70  55 S8        29.91F
DOVER          MOSUNNY   89  75  62 S13       29.86F HX  99
GEORGETOWN     MOSUNNY   89  73  59 SW15G22   29.90F HX  97
EASTON         NOT AVBL
CAMBRIDGE      MOSUNNY   88  72  58 S10G16    29.89F
SALISBURY      MOSUNNY   88  71  57 S15G23    29.90F
OCEAN CITY     MOSUNNY   84  75  74 S14G20    29.92F
WALLOPS ISLAND SUNNY     85  77  77 S15       29.93F HX  95
ACCOMACK*      MOSUNNY   88  79  74 S10       29.92F HX 102
$$

NCZ012>017-030>032-301900-
NORTH CENTRAL AND EASTERN NORTH CAROLINA

CITY           SKY/WX    TMP DP  RH WIND       PRES   REMARKS
ROANOKE RAPIDS FAIR      90  70  51 SW7       29.93F HX  95
RALEIGH        MOSUNNY   91  71  51 S5        29.95F HX  97
ELIZABETH CITY MOSUNNY   87  74  64 E12       29.94F HX  95
AHOSKIE*       MOSUNNY   89  70  54 SE3       29.93F
EDENTON*         N/A     90  71  54 SW6       29.93F HX  96
CURRITUCK*     PTSUNNY   88  75  65 E3        29.94F HX  97
KILL DEVIL HLS PTSUNNY   87  76  68 S8        29.93F HX  97
MANTEO         PTSUNNY   87  77  72 S17       29.95F HX  98
CAPE HATTERAS  PTSUNNY   85  77  77 S10       29.96F HX  95
TARBORO*         N/A     92  68  44 CALM      29.94F HX  96
GOLDSBORO      NOT AVBL
WASHINGTON     SUNNY     90  73  57 E5        29.93F HX  97
GREENVILLE     SUNNY     91  72  52 W3        29.95F HX  98
NEW BERN       CLOUDY    86  76  71 CALM      29.94F HX  96
WILMINGTON     PTSUNNY   91  74  57 VRB7      29.92F HX 100
$$

VAZ048-301900-
ELSEWHERE

CITY           SKY/WX    TMP DP  RH WIND       PRES   REMARKS
HARRISBURG PA  CLOUDY    81  74  79 CALM      29.86F
BALTIMORE      TSTM      81  73  78 SW14G22   29.87F VSB 3/4
ANNAPOLIS      PTSUNNY   87  74  64 S15G22    29.87F HX  95
ANDREWS AFB    MOSUNNY   89  75  63 S13G20    29.88F HX  99
PHILADELPHIA   CLOUDY    90  73  57 S16       29.86F HX  98
HENDERSON NC   MOSUNNY   90  69  51 S7        29.94F
GREENSBORO     PTSUNNY   90  70  51 NW9       29.96F HX  95
ROCKY MOUNT    MOSUNNY   94  70  45 CALM      29.93F HX 100
$$

VAZ100-301900-
MARINE

STATION/POSITION TIME  TEMP    WIND        PRES    WAVE   SWELL
                       AIR SEA DIR/SP/G            HT/PER HT/PER
                 (UTC) (F)     (DEG/KT/KT) (MB)    (FT/S) (FT/S)
BRANDYWINE LGT   1700   78 76  180/ 12/ 13 1013.0F
CAPE MAY NJ      1700   80 80  160/ 13/ 17 1012.6F
LEWES DE         1700   87 73  240/  7/ 12 1012.8F
15NM E FENWICK I 1750   79 79  190/ 16/ 17 1013.5F   3/ 8   2/ 8
OCEAN-CITY-INLET 1700   79 77  200/ 10/ 13 1013.0F
WACHAPREAGUE VA  1700   83 86  180/ 10/ 14 1014.2F
GOOSES REEF MD   1800   85 82  200/ 12/ 14 1013.0F
COVE POINT MD    1700   83     190/ 12/ 15 1013.7F
SOLOMONS ISLAND  1700      83                N/A
BISHOPS HEAD MD  1700   83 84  190/ 13/ 16 1012.5F
POTOMAC MD       1800   86 83  230/ 10/ 12 1011.2F   1/ 2
CAMBRIDGE MD     1700   86 83  190/  8/ 13 1012.2F
LEWISETTA VA     1700   85 84  210/ 11/ 14 1012.8F
RAPPAHANNOCK LGT 1700          200/  9/ 10 1014.5F
STINGRAY PT      1800   83 84  160/ 12/ 16 1013.1F   1/ 3
YORK RVR RNG VA  1700   82     140/ 11/ 12 1013.3F
YORKTOWN VA      1700   83 83   70/ 10/ 10 1013.6F
JAMESTOWN VA     1800   87 88  140/  4/  6   N/A
DOMINION TERM VA 1700   86     230/  1/  2 1014.0F
KIPTOPEKE VA     1700      81  190/  6/  7   N/A
CHES BAY BRIDGE  1700   80 80   60/  9/ 11 1013.6F
CAPE HENRY VA    1700   83     130/ 12/ 15   N/A
CHESAPEAKE LGHT  1700   80     170/ 10/ 10 1015.1F
WILLOUBY STN VA  1700   81      80/  7/  8 1015.0F
CAPE HENRY BUOY  1728      81                N/A     3/10
1ST LANDING BUOY 1800      81              1013.1F   1/ 5
CAPE CHARLES BUO 1726                        N/A     2/11   2/11
OFFSHORE WE BUOY 1711      83                N/A     3/10   3/10
64NM E OF VA BCH 1750   81 82  200/ 12/ 14 1014.1F   3/ 9   2/ 9
DUCK PIER NC     1700   82 64  120/  8/ 10 1013.5F
44100 DUCK FRF   1724      81                N/A     3/ 9
44056 DUCK FRF   1711      75                N/A     2/10
OREGON INLET NC  1700   83 82  190/ 17/ 19 1014.5F
HATTERAS NC      1700   86 83  170/  6/ 10 1014.5F
DIAMOND SHLS NC  1750   84 85  180/ 19/ 23 1014.3F   4/ 5   2/10
CAPE LOOKOUT NC  1800   84     180/  8/  9 1013.7F
$$



USA.gov is the U.S. government's official web portal to all federal, state and local government web resources and services.